Location: Helsinki
(60.1699°N, 24.9384°E)
Time: 23:59:26
(UTC+02:00)

Altair - Pass Details

Date: 30 October 2020
Orbit: 1502 x 1682 km, 47.2° (Epoch: 25 November)

Event Time Altitude Azimuth Distance (km) Brightness Sun altitude
Rises 07:08:12 0° 242° (WSW) 4,672 9.6 -4.3°
Reaches altitude 10° 07:11:28 10° 235° (SW) 3,710 9.2 -3.9°
Maximum altitude 07:19:46 37° 172° (S) 2,262 8.8 -3.0°
Drops below altitude 10° 07:28:21 10° 110° (ESE) 3,837 11.7 -2.0°
Sets 07:31:48 0° 103° (ESE) 4,849 12.2 -1.6°
